Regional Weather Roundup
Issued by NWS

Home | Current Version | Previous Version | Graphics & Text | Print | Product List | Glossary On
Versions: 1 2 3 4 5 6 7 8 9 10 11 12 13 14 15 16 17 18 19 20 21 22 23 24 25 26 27
000
ASUS45 KCYS 271910
RWRWY

WYOMING REGIONAL WEATHER ROUNDUP
NATIONAL WEATHER SERVICE CHEYENNE WY
100 PM MDT FRI MAY 27 2016

NOTE:  "FAIR" INDICATES FEW OR NO CLOUDS BELOW 12,000 FEET
WITH NO SIGNIFICANT WEATHER AND/OR OBSTRUCTIONS TO VISIBILITY.

WYZ001-272000-
YELLOWSTONE NATIONAL PARK

CITY           SKY/WX    TMP DP  RH WIND       PRES   REMARKS
LK YELLOWSTONE   N/A     46  36  68 VRB5      30.02F
W YELLOWSTONE  NOT AVBL

$$
WYZ002>013-054>058-071-098>099-272000-
NORTHERN WYOMING

CITY           SKY/WX    TMP DP  RH WIND       PRES   REMARKS
JACKSON        MOSUNNY   57  36  44 S17       29.97S
CODY           PTSUNNY   64  43  45 NE9       29.86F
GREYBULL       FAIR      67  40  37 VRB5      29.85F
WORLAND        FAIR      67  40  37 VRB3      29.86F
SHERIDAN       PTSUNNY   66  45  46 VRB3      29.87F
BUFFALO        PTSUNNY   64  40  41 VRB5      29.90F
GILLETTE       PTSUNNY   64  42  44 N12       29.88S
HULETT         CLOUDY    59  43  55 N8        29.90S
NEWCASTLE      FAIR      63  32  31 N13G18    29.88F

$$
WYZ014>020-022>026-101>103-272000-
CENTRAL WYOMING

CITY           SKY/WX    TMP DP  RH WIND       PRES   REMARKS
BIG PINEY      PTSUNNY   55  33  43 NE9       29.99F
PINEDALE       CLOUDY    52  32  46 W8G22     30.01S
DUBOIS         CLOUDY    61  23  23 W14G21    29.94F
LANDER         PTSUNNY   63  34  33 NW5       29.89F
RIVERTON       FAIR      64  34  32 VRB3      29.91F
CASPER         FAIR      62  34  35 NW5       29.90F
DOUGLAS          N/A    N/A N/A N/A MISG      29.90F

$$
WYZ021-027>030-104>119-272000-
SOUTHERN WYOMING

CITY           SKY/WX    TMP DP  RH WIND       PRES   REMARKS
EVANSTON       PTSUNNY   52  35  52 NE3       30.02F
KEMMERER         N/A     57  36  44 W18G25    30.01F
FORT BRIDGER   PTCLDY    59  34  38 W6        30.03F
ROCK SPRINGS   CLOUDY    55  33  43 NW9       29.98F
DIXON          FAIR      61  35  38 W15G21    29.97F
RAWLINS        PTSUNNY   57  32  38 NW12G20   29.96F
SARATOGA       FAIR      59  32  36 N16G29    29.98S
LARAMIE        PTSUNNY   53  32  44 N14       29.96F
CHEYENNE       FAIR      57  34  41 N20G26    29.92F
TORRINGTON     LGT RAIN  55  46  71 SE14G26   29.88R
PINE BLUFFS    LGT RAIN  46  45  93 E17       29.93R

$$




USA.gov is the U.S. government's official web portal to all federal, state and local government web resources and services.